Location: Unspecified
(41.5000°N, 0.0000°E)
Time: 14:54:18
(UTC+00:00)

deb Explorer IX - Pass Details

Date: 28 June 2019
Orbit: 539 x 1112 km, 38.8° (Epoch: 20 July)

Event Time Altitude Azimuth Distance (km) Brightness Sun altitude
Rises 14:39:46 0° 274° (W) 3,764 ? 52.7°
Reaches altitude 10° 14:42:24 10° 272° (W) 2,868 ? 52.2°
Maximum altitude 14:49:27 64° 192° (SSW) 1,211 ? 51.0°
Drops below altitude 10° 14:56:43 10° 113° (ESE) 2,958 ? 49.6°
Sets 14:59:28 0° 111° (ESE) 3,889 ? 49.1°
